Observations for Trim Market St
| Time | AQI | Temp °C | Hum % | Pres Pa | CO μg/m³ | H₂S μg/m³ | NO μg/m³ | NO₂ μg/m³ | O₃ μg/m³ | SO₂ μg/m³ | PM1 μg/m³ | PM2.5 μg/m³ | PM10 μg/m³ |
|---|---|---|---|---|---|---|---|---|---|---|---|---|---|
| Tuesday 18 August 2026 | |||||||||||||
| 23:00 | 2 | 15.4 | 84 | 2,147,483,647 | 0.26 | 0 | 2.3 | 7.34 | 43.78 | 0 | 2.14 | 4.29 | 8.08 |
| 22:57 | 2 | 15.4 | 84 | 2,147,483,647 | 0.28 | 0 | 2.3 | 9.31 | 50.48 | 0 | 1.43 | 3.35 | 6.44 |
| 22:54 | 2 | 15.4 | 84 | 2,147,483,647 | 0.29 | 0 | 2.29 | 7.62 | 48.61 | 0 | 2.14 | 4.29 | 7.53 |
| 22:53 | 2 | 15.4 | 83 | 2,147,483,647 | 0.3 | 0 | 2.28 | 9.13 | 53.07 | 0 | 2.14 | 2.89 | 6.98 |
| 22:52 | 2 | 15.4 | 83 | 2,147,483,647 | 0.28 | 0 | 2.28 | 8.14 | 49.2 | 0 | 2.14 | 3.36 | 6.44 |
| 22:51 | 2 | 15.4 | 83 | 2,147,483,647 | 0.34 | 0 | 2.28 | 7.98 | 44.56 | 0 | 2.14 | 2.89 | 5.89 |
| 22:50 | 2 | 15.4 | 83 | 2,147,483,647 | 0.41 | 0 | 2.28 | 6.84 | 42.29 | 0 | 2.14 | 3.82 | 8.63 |
| 22:49 | 2 | 15.5 | 83 | 2,147,483,647 | 0.57 | 0 | 2.27 | 8.45 | 47.56 | 0 | 2.14 | 3.82 | 6.98 |
| 22:48 | 2 | 15.5 | 83 | 2,147,483,647 | 0.33 | 0 | 2.29 | 8.26 | 46.03 | 0 | 1.43 | 2.89 | 5.89 |
| 22:47 | 2 | 15.5 | 83 | 2,147,483,647 | 0.27 | 0 | 2.3 | 6.95 | 48.93 | 0 | 1.43 | 1.96 | 9.17 |
| 22:46 | 2 | 15.4 | 83 | 2,147,483,647 | 0.27 | 0 | 2.29 | 8.71 | 49.17 | 0 | 1.43 | 4.76 | 9.72 |
| 22:45 | 2 | 15.5 | 83 | 2,147,483,647 | 0.27 | 0 | 2.27 | 7.63 | 48.59 | 0 | 2.85 | 4.29 | 8.08 |
| 22:44 | 2 | 15.5 | 83 | 2,147,483,647 | 0.27 | 0 | 2.26 | 9.2 | 44.55 | 0 | 1.43 | 2.89 | 5.89 |
| 22:43 | 2 | 15.5 | 83 | 2,147,483,647 | 0.26 | 0 | 2.26 | 7.34 | 45.87 | 0 | 0.71 | 1.96 | 5.34 |
| 22:42 | 2 | 15.5 | 83 | 2,147,483,647 | 0.26 | 0 | 2.27 | 6.94 | 46.19 | 0 | 2.85 | 4.29 | 7.53 |
| 22:41 | 2 | 15.5 | 83 | 2,147,483,647 | 0.27 | 0 | 2.26 | 8.28 | 53.36 | 0 | 1.43 | 3.36 | 6.98 |
| 22:38 | 2 | 15.5 | 83 | 2,147,483,647 | 0.27 | 0 | 2.32 | 10.42 | 47.67 | 0 | 3.56 | 4.76 | 9.72 |
| 22:36 | 2 | 15.5 | 83 | 2,147,483,647 | 0.28 | 0 | 2.31 | 15.37 | 49.51 | 0 | 0.71 | 1.96 | 4.79 |
| 22:35 | 2 | 15.5 | 83 | 2,147,483,647 | 0.29 | 0 | 2.33 | 10.89 | 46.43 | 0 | 2.14 | 2.43 | 5.89 |
| 22:34 | 2 | 15.5 | 83 | 2,147,483,647 | 0.29 | 0 | 2.32 | 7.78 | 51.89 | 0 | 1.43 | 2.43 | 5.34 |